Home > Weather > Vasai-Virar > Past weeks

Flag for India Past Weather in Vasai-Virar, Maharashtra, India — Yesterday and Last 2 Weeks

Now
81 °F

Broken clouds.


Feels Like: 86 °F
Forecast: 81 / 85 °F
Wind: 8 mph from South

Location: Mumbai / Santacruz

Current Time: Jun 29, 2016 at 2:50:43 PM

Latest Report: Jun 29, 2016 at 2:00 PM


Visibility: 1 mi

Pressure: 29.65 "Hg

Humidity: 84%

Dew Point: 75 °F

Location of Vasai-VirarLocation

Past Weather in Vasai-Virar — Graph

°F

Vasai-Virar Temperature Yesterday

Maximum temperature yesterday: 84 °F (at 7:30 PM)
Minimum temperature yesterday: 79 °F (at 1:30 AM)
Average temperature yesterday: 81 °F

High & Low Weather Summary for the Past Weeks

 TemperatureHumidityPressure
High93 °F (Jun 16, 3:30 PM)100% (Jun 21, 4:00 AM)29.74 "Hg (Jun 21, 4:00 AM)
Low77 °F (Jun 19, 8:30 PM)59% (Jun 18, 12:00 PM)29.53 "Hg (Jun 20, 4:30 PM)
Average84 °F83%29.65 "Hg
* Reported Jun 14 1:30 PM — Jun 29 1:30 PM, Vasai-Virar, Weather by CustomWeather, © 2016

Note: Actual official high and low records may vary slightly from our data, if they occured in-between our weather recording intervals... More about our weather records

Advertising

Vasai-Virar Weather History for the Previous 24 Hours

Scroll right to see more
 ConditionsComfort  
Time TempWeatherWind HumidityBarometerVisibility
1:30 PM
Wed, Jun 29
81 °FBroken clouds.8 mph89%29.65 "Hg1 mi
1:00 PM81 °FBroken clouds.8 mph84%29.68 "Hg1 mi
12:30 PM81 °FBroken clouds.6 mph84%29.68 "Hg1 mi
12:00 PM81 °FBroken clouds.6 mph89%29.68 "Hg1 mi
11:30 AM79 °FScattered showers. Broken clouds.7 mph94%29.68 "Hg1 mi
11:00 AM77 °FBroken clouds.5 mph94%29.68 "Hg1 mi
10:30 AM77 °FDrizzle. More clouds than sun.5 mph94%29.68 "Hg1 mi
10:00 AM77 °FDrizzle. More clouds than sun.10 mph94%29.68 "Hg1 mi
9:30 AM79 °FRain. More clouds than sun.9 mph94%29.68 "Hg1 mi
9:00 AM79 °FLight rain. More clouds than sun.8 mph94%29.68 "Hg1 mi
8:30 AM79 °FLight rain. More clouds than sun.10 mph94%29.65 "Hg1 mi
8:00 AM77 °FRain. More clouds than sun.10 mph94%29.65 "Hg1 mi
7:30 AM77 °FRain showers. More clouds than sun.7 mph100%29.65 "Hg1 mi
7:00 AM79 °FScattered showers. More clouds than sun.No wind94%29.62 "Hg1 mi
6:30 AM79 °FMostly cloudy.3 mph94%29.62 "Hg1 mi
6:00 AM77 °FDrizzle. Mostly cloudy.3 mph100%29.59 "Hg1 mi
5:30 AM77 °FLight rain. Mostly cloudy.6 mph100%29.59 "Hg1 mi
5:00 AM77 °FRain. Mostly cloudy.5 mph100%29.59 "Hg1 mi
4:30 AM77 °FRain. Mostly cloudy.5 mph100%29.59 "Hg1 mi
4:00 AM77 °FLight rain. Mostly cloudy.7 mph94%29.59 "Hg1 mi
3:30 AM77 °FLight rain. Mostly cloudy.6 mph100%29.59 "Hg1 mi
3:00 AM77 °FLight rain. Mostly cloudy.6 mph100%29.59 "Hg1 mi
2:30 AM77 °FLight rain. Mostly cloudy.3 mph100%29.62 "Hg1 mi
2:00 AM77 °FRain. Mostly cloudy.3 mph100%29.62 "Hg1 mi
10:30 PM
Tue, Jun 28
81 °FDrizzle. Mostly cloudy.5 mph94%29.65 "Hg1 mi
10:00 PM81 °FDrizzle. Mostly cloudy.5 mph94%29.65 "Hg1 mi
9:30 PM81 °FLight rain. Mostly cloudy.5 mph94%29.62 "Hg1 mi
9:00 PM81 °FRain. Mostly cloudy.3 mph94%29.62 "Hg1 mi
8:30 PM81 °FRain. Mostly cloudy.6 mph94%29.62 "Hg1 mi
8:00 PM84 °FMostly cloudy.3 mph84%29.62 "Hg1 mi
7:30 PM84 °FBroken clouds.3 mph84%29.62 "Hg1 mi
7:00 PM82 °FBroken clouds.7 mph84%29.59 "Hg1 mi
6:30 PM82 °FBroken clouds.9 mph89%29.59 "Hg1 mi
6:00 PM81 °FBroken clouds.8 mph94%29.59 "Hg1 mi
5:30 PM81 °FBroken clouds.6 mph94%29.56 "Hg1 mi
5:00 PM82 °FRain. More clouds than sun.6 mph89%29.56 "Hg1 mi
4:30 PM81 °FBroken clouds.8 mph94%29.56 "Hg1 mi
4:00 PM81 °FBroken clouds.6 mph94%29.56 "Hg1 mi
3:30 PM81 °FDrizzle. More clouds than sun.9 mph94%29.59 "Hg1 mi
3:00 PM79 °FDrizzle. Fog.12 mph94%29.59 "Hg1 mi
2:30 PM79 °FRain. More clouds than sun.9 mph94%29.59 "Hg1 mi
2:00 PM79 °FRain. More clouds than sun.12 mph94%29.59 "Hg1 mi
Weather by CustomWeather, © 2016

See weather overviewHow to use our weather pages